Hourly Data Report for September 03, 2017

All times are specified in Local Standard Time (LST). Add 1 hour to adjust for Daylight Saving Time where and when it is observed.

HALL BEACH A
NUNAVUT

68°46'33.000" N
81°14'33.000" W
9.10 m
2402354
71293
YUX

Download Data

Hourly Data (September 2017)
Hourly Data Report for September 3, 2017
Temp Definition
°C
Dew Point Temp Definition
°C
Rel Hum Definition
%
Wind Dir Definition
10's deg

Wind Spd Definition
km/h
Visibility Definition
km
Stn Press Definition
kPa
Hmdx Definition


Wind Chill Definition


Weather Definition


TIME
00:00 Legend Double Dagger 1.3 0.1 92 2 11 16.1 100.89     LegendNANA
01:00 Legend Double Dagger 1.0 0.0 93 2 9 16.1 100.88     LegendNANA
02:00 Legend Double Dagger 0.9 -0.1 93 2 13 16.1 100.88     LegendNANA
03:00 Legend Double Dagger 1.2 0.2 93 2 9 16.1 100.89     LegendNANA
04:00 Legend Double Dagger 0.8 -0.1 94 1 9 16.1 100.90     LegendNANA
05:00 Legend Double Dagger 1.3 0.4 94 3 15 16.1 100.89     LegendNANA
06:00 Legend Double Dagger 1.8 0.6 92 4 15 16.1 100.88     LegendNANA
07:00 Legend Double Dagger 2.6 1.0 89 4 15 16.1 100.90     LegendNANA
08:00 Legend Double Dagger 3.1 1.3 88 3 13 16.1 100.92     LegendNANA
09:00 Legend Double Dagger 3.3 1.4 87 4 11 16.1 100.93     LegendNANA
10:00 Legend Double Dagger 3.6 1.7 87 2 21 16.1 100.93     LegendNANA
11:00 Legend Double Dagger 3.6 1.6 87 2 18 16.1 100.91     LegendNANA
12:00 Legend Double Dagger 3.8 1.6 85 4 18 16.1 100.89     LegendNANA
13:00 Legend Double Dagger 3.5 1.2 85 4 17 16.1 100.89     LegendNANA
14:00 Legend Double Dagger 3.5 1.1 84 3 17 16.1 100.91     LegendNANA
15:00 Legend Double Dagger 3.6 0.8 82 4 13 16.1 100.94     LegendNANA
16:00 Legend Double Dagger 3.6 0.4 79 4 13 16.1 100.94     LegendNANA
17:00 Legend Double Dagger 3.6 -0.6 74 4 9 16.1 100.93     LegendNANA
18:00 Legend Double Dagger 3.4 0.3 80 2 11 16.1 100.94     LegendNANA
19:00 Legend Double Dagger 2.8 0.4 84 4 5 16.1 100.94     LegendNANA
20:00 Legend Double Dagger 2.2 -0.2 84 4 5 11.3 100.94     LegendNANA
21:00 Legend Double Dagger 2.2 -0.4 83 3 4 16.1 100.93     LegendNANA
22:00 Legend Double Dagger 1.3 0.0 91 35 13 16.1 100.92     LegendNANA
23:00 Legend Double Dagger 1.3 0.3 93 32 13 16.1 100.92     LegendNANA

Notes on Data Quality.

Legend

  • E = Estimated
  • M = Missing
  • NA = Not Available
  • ‡ = Partner data that is not subject to review by the National Climate Archives
Date modified: